GW5487 Weather Reports


time (UTC)temp
C
wind
direction
speed
KPH
gust
KPH
rain 1hr
cm
rain 24hr
cm
rain mn
cm
humidity
%
barometer
mb
20260505081935 15 237 3.2 3.2 0.00 0.00 0.00 81 1010.3
20260505081432 15 200 4.8 4.8 0.00 0.00 0.00 82 1010.3
20260505080928 15 247 3.2 3.2 0.00 0.00 0.00 82 1010.2
20260505080424 15 198 4.8 8.0 0.00 0.00 0.00 82 1010.6
20260505075920 14 169 8.0 11.3 0.00 0.00 0.00 82 1010.4
20260505075417 14 269 4.8 4.8 0.00 0.00 0.00 82 1010.4
20260505074915 14 205 0.0 1.6 0.00 0.00 0.00 82 1010.4
20260505074411 14 205 1.6 1.6 0.00 0.00 0.00 82 1010.4
20260505073909 14 237 3.2 3.2 0.00 0.00 0.00 83 1010.4
20260505073407 14 221 3.2 3.2 0.00 0.00 0.00 83 1010.0
20260505072903 13 228 4.8 8.0 0.00 0.00 0.00 83 1010.4
20260505072359 13 202 1.6 3.2 0.00 0.00 0.00 83 1010.3
20260505071856 13 212 4.8 4.8 0.00 0.00 0.00 83 1010.0
20260505071352 13 215 0.0 0.0 0.00 0.00 0.00 83 1010.2
20260505070851 13 191 1.6 1.6 0.00 0.00 0.00 83 1010.1
20260505070346 13 210 1.6 4.8 0.00 0.00 0.00 83 1010.1
20260505065842 13 203 0.0 1.6 0.00 0.00 0.00 83 1010.4
20260505065339 14 197 6.4 8.0 0.00 0.00 0.00 82 1010.4
20260505064836 14 215 1.6 1.6 0.00 0.00 0.00 82 1010.1
20260505064333 14 183 1.6 1.6 0.00 0.00 0.00 81 1010.3
20260505063831 14 331 3.2 3.2 0.00 0.00 0.00 81 1010.4
20260505063327 14 155 3.2 4.8 0.00 0.00 0.00 81 1010.2
20260505062824 14 217 4.8 4.8 0.00 0.00 0.00 81 1010.3
20260505062321 14 209 0.0 1.6 0.00 0.00 0.00 81 1010.3
20260505061818 14 170 1.6 3.2 0.00 0.00 0.00 81 1010.4
20260505061316 14 200 0.0 1.6 0.00 0.00 0.00 81 1010.2
20260505060813 14 261 1.6 3.2 0.00 0.00 0.00 80 1010.5
20260505060310 14 165 0.0 0.0 0.00 0.00 0.00 80 1010.4
20260505055805 14 195 6.4 9.7 0.00 0.00 0.00 80 1010.5
20260505055303 14 204 4.8 4.8 0.00 0.00 0.00 80 1010.6
20260505054759 14 198 0.0 0.0 0.00 0.00 0.00 80 1010.6
20260505054257 14 205 1.6 3.2 0.00 0.00 0.00 79 1010.5
20260505053755 15 196 0.0 1.6 0.00 0.00 0.00 79 1010.4
20260505053251 15 177 3.2 3.2 0.00 0.00 0.00 79 1010.2
20260505052748 15 206 1.6 3.2 0.00 0.00 0.00 79 1010.5
20260505052245 15 194 3.2 3.2 0.00 0.00 0.00 79 1010.4
20260505051742 15 170 6.4 8.0 0.00 0.00 0.00 78 1010.5
20260505051240 15 175 1.6 3.2 0.00 0.00 0.00 78 1010.4
20260505050738 15 178 3.2 4.8 0.00 0.00 0.00 78 1010.5
20260505050236 15 167 8.0 9.7 0.00 0.00 0.00 77 1010.5
20260505041706 15 193 4.8 4.8 0.00 0.00 0.00 73 1010.9
20260505041203 15 182 1.6 3.2 0.00 0.00 0.00 72 1010.8
20260505040700 15 199 3.2 3.2 0.00 0.00 0.00 71 1010.8
20260505040157 15 223 8.0 9.7 0.00 0.00 0.00 70 1011.0
20260505035654 15 184 8.0 11.3 0.00 0.00 0.00 70 1010.8
20260505035150 16 218 9.7 12.9 0.00 0.00 0.00 69 1010.9
20260505034646 16 186 1.6 3.2 0.00 0.00 0.00 69 1011.0
20260505034144 16 203 4.8 4.8 0.00 0.00 0.00 69 1010.9
20260505033640 16 204 3.2 4.8 0.00 0.00 0.00 68 1010.8
20260505033139 16 187 6.4 8.0 0.00 0.00 0.00 68 1010.9
20260505032636 16 176 4.8 4.8 0.00 0.00 0.00 68 1010.9
20260505032132 16 210 4.8 4.8 0.00 0.00 0.00 67 1011.0
20260505031630 16 189 4.8 4.8 0.00 0.00 0.00 67 1011.3
20260505031126 16 165 3.2 3.2 0.00 0.00 0.00 67 1011.3
20260505030623 16 209 4.8 8.0 0.00 0.00 0.00 66 1011.2
20260505030119 16 197 4.8 9.7 0.00 0.00 0.00 66 1011.3
20260505025615 16 191 4.8 4.8 0.00 0.00 0.00 67 1011.2
20260505025114 16 190 1.6 1.6 0.00 0.00 0.00 66 1011.3
20260505024611 16 188 3.2 4.8 0.00 0.00 0.00 66 1011.3
20260505024108 16 198 4.8 4.8 0.00 0.00 0.00 66 1011.2
20260505023605 16 177 1.6 1.6 0.00 0.00 0.00 66 1011.2
20260505023103 16 203 3.2 4.8 0.00 0.00 0.00 66 1011.2
20260505022600 16 191 3.2 3.2 0.00 0.00 0.00 66 1011.5
20260505022057 16 179 4.8 8.0 0.00 0.00 0.00 66 1011.3
20260505021553 16 201 4.8 4.8 0.00 0.00 0.00 66 1011.4
20260505021050 16 187 1.6 3.2 0.00 0.00 0.00 65 1011.2
20260505020549 16 194 3.2 4.8 0.00 0.00 0.00 66 1011.5
20260505020047 16 175 4.8 4.8 0.00 0.00 0.00 66 1011.4
20260505015544 16 168 4.8 4.8 0.00 0.00 0.00 65 1011.3
20260505015041 16 167 9.7 11.3 0.00 0.00 0.00 65 1011.3
20260505014538 16 208 1.6 1.6 0.00 0.00 0.00 66 1011.2
20260505014035 16 214 4.8 4.8 0.00 0.00 0.00 65 1011.2
20260505013531 16 197 1.6 3.2 0.00 0.00 0.00 66 1011.2
20260505013029 16 206 3.2 4.8 0.00 0.00 0.00 66 1011.4
20260505012527 16 154 3.2 4.8 0.00 0.00 0.00 66 1011.3
20260505012024 16 206 0.0 1.6 0.00 0.00 0.00 66 1011.4
20260505011519 16 196 0.0 1.6 0.00 0.00 0.00 67 1011.3
20260505011017 16 182 4.8 4.8 0.00 0.00 0.00 66 1011.1
20260505010512 16 172 3.2 8.0 0.00 0.00 0.00 66 1011.0
20260505010009 16 177 4.8 4.8 0.00 0.00 0.00 66 1011.0
20260505005505 16 234 4.8 8.0 0.00 0.00 0.00 66 1011.3
20260505005004 16 203 8.0 12.9 0.00 0.00 0.00 66 1010.9
20260505004500 16 232 3.2 4.8 0.00 0.00 0.00 66 1010.9
20260505003956 16 193 3.2 3.2 0.00 0.00 0.00 65 1010.8
20260505003454 16 190 12.9 16.1 0.00 0.00 0.00 64 1011.0
20260505002950 16 192 8.0 11.3 0.00 0.00 0.00 64 1010.6
20260505002446 16 184 12.9 17.7 0.00 0.00 0.00 63 1011.0
20260505001945 16 175 6.4 8.0 0.00 0.00 0.00 62 1010.6
20260505001442 16 243 8.0 9.7 0.00 0.00 0.00 61 1010.6
20260505000939 17 200 11.3 14.5 0.00 0.00 0.00 60 1010.4
20260505000437 17 208 4.8 4.8 0.00 0.00 0.00 59 1010.4
20260504235933 17 178 8.0 11.3 0.00 0.00 0.00 58 1010.3
20260504235431 17 161 6.4 9.7 0.00 0.00 0.00 57 1010.3
20260504234926 17 215 4.8 4.8 0.00 0.00 0.00 56 1010.3
20260504234424 17 209 6.4 8.0 0.00 0.00 0.00 55 1010.2
20260504233921 18 171 11.3 14.5 0.00 0.00 0.00 54 1010.0
20260504233417 18 217 6.4 11.3 0.00 0.00 0.00 52 1010.1
20260504232913 18 189 9.7 12.9 0.00 0.00 0.00 51 1010.0
20260504232410 18 213 3.2 4.8 0.00 0.00 0.00 50 1010.2
20260504231907 18 200 1.6 3.2 0.00 0.00 0.00 50 1010.1
20260504231404 18 179 9.7 12.9 0.00 0.00 0.00 49 1010.1
20260504230900 19 197 9.7 12.9 0.00 0.00 0.00 49 1009.9
20260504230357 19 204 4.8 8.0 0.00 0.00 0.00 49 1009.9
20260504225856 19 167 9.7 9.7 0.00 0.00 0.00 49 1009.8
20260504225352 19 186 4.8 8.0 0.00 0.00 0.00 50 1009.9
20260504224850 19 199 17.7 27.4 0.00 0.00 0.00 49 1009.7
20260504224346 19 235 4.8 4.8 0.00 0.00 0.00 51 1009.8
20260504223843 19 187 8.0 11.3 0.00 0.00 0.00 51 1009.8
20260504223338 19 186 4.8 8.0 0.00 0.00 0.00 51 1009.8
20260504222835 19 152 17.7 20.9 0.00 0.00 0.00 51 1009.8
20260504222332 20 223 6.4 9.7 0.00 0.00 0.00 50 1009.6
20260504221831 20 229 4.8 4.8 0.00 0.00 0.00 49 1009.6
20260504221327 20 201 9.7 12.9 0.00 0.00 0.00 49 1009.8
20260504220824 20 218 17.7 29.0 0.00 0.00 0.00 49 1009.8
20260504220321 20 157 9.7 11.3 0.00 0.00 0.00 49 1009.8
20260504215819 20 187 19.3 25.7 0.00 0.00 0.00 48 1009.6
20260504215315 20 209 11.3 12.9 0.00 0.00 0.00 47 1009.8
20260504214811 20 164 12.9 14.5 0.00 0.00 0.00 47 1009.7
20260504214308 20 182 11.3 14.5 0.00 0.00 0.00 47 1009.9
20260504213804 21 215 4.8 11.3 0.00 0.00 0.00 47 1009.6
20260504213300 20 165 3.2 3.2 0.00 0.00 0.00 48 1009.7
20260504212758 20 165 4.8 8.0 0.00 0.00 0.00 50 1009.8
20260504212254 20 189 12.9 14.5 0.00 0.00 0.00 49 1009.8
20260504211752 20 183 12.9 16.1 0.00 0.00 0.00 48 1009.8
20260504211247 20 175 17.7 22.5 0.00 0.00 0.00 49 1009.6
20260504210745 20 245 12.9 20.9 0.00 0.00 0.00 50 1009.6
20260504210242 20 203 8.0 16.1 0.00 0.00 0.00 54 1009.6
20260504205739 20 223 6.4 8.0 0.00 0.00 0.00 54 1009.5
20260504205237 20 145 11.3 16.1 0.00 0.00 0.00 53 1009.4
20260504204735 20 90 6.4 8.0 0.00 0.00 0.00 55 1009.4
20260504204233 20 150 4.8 9.7 0.00 0.00 0.00 57 1009.7
20260504203732 20 167 9.7 16.1 0.00 0.00 0.00 58 1009.6
20260504203229 19 165 11.3 14.5 0.00 0.00 0.00 57 1009.6
20260504202729 20 175 12.9 14.5 0.00 0.00 0.00 57 1009.7
20260504202226 20 167 11.3 14.5 0.00 0.00 0.00 54 1009.6
20260504201724 20 129 6.4 11.3 0.00 0.00 0.00 55 1009.7
20260504201220 20 182 14.5 16.1 0.00 0.00 0.00 56 1009.5
20260504200718 20 81 12.9 16.1 0.00 0.00 0.00 56 1009.9
20260504200214 20 187 12.9 17.7 0.00 0.00 0.00 55 1009.6
20260504195711 20 159 8.0 9.7 0.00 0.00 0.00 56 1010.0
20260504195206 20 182 14.5 16.1 0.00 0.00 0.00 56 1009.8
20260504194703 21 188 14.5 16.1 0.00 0.00 0.00 49 1009.9
20260504194159 20 149 9.7 12.9 0.00 0.00 0.00 53 1009.8
20260504193656 21 182 9.7 14.5 0.00 0.00 0.00 53 1009.9
20260504193154 23 85 6.4 8.0 0.00 0.00 0.00 45 1010.0
20260504192652 23 184 4.8 9.7 0.00 0.00 0.00 31 1009.9
20260504192150 23 141 6.4 9.7 0.00 0.00 0.00 33 1010.0
20260504191648 23 182 6.4 9.7 0.00 0.00 0.00 33 1010.2
20260504191144 23 331 9.7 16.1 0.00 0.00 0.00 33 1010.3
20260504190640 23 267 8.0 9.7 0.00 0.00 0.00 34 1010.5
20260504190137 22 298 4.8 8.0 0.00 0.00 0.00 34 1010.5
20260504185633 22 298 4.8 4.8 0.00 0.00 0.00 34 1010.5
20260504185130 22 229 8.0 12.9 0.00 0.00 0.00 34 1010.7
20260504184626 22 264 3.2 4.8 0.00 0.00 0.00 35 1010.7
20260504184121 22 248 8.0 11.3 0.00 0.00 0.00 34 1010.6
20260504183618 22 262 8.0 11.3 0.00 0.00 0.00 34 1010.7
20260504183116 22 93 4.8 4.8 0.00 0.00 0.00 36 1010.7
20260504182613 23 267 6.4 9.7 0.00 0.00 0.00 35 1010.8
20260504182110 23 201 11.3 17.7 0.00 0.00 0.00 33 1010.8
20260504181608 22 311 8.0 11.3 0.00 0.00 0.00 37 1010.9
20260504181105 22 318 9.7 16.1 0.00 0.00 0.00 36 1011.0
20260504180604 22 149 3.2 3.2 0.00 0.00 0.00 34 1011.2
20260504175559 21 258 4.8 4.8 0.00 0.00 0.00 37 1011.1
20260504175056 21 299 11.3 12.9 0.00 0.00 0.00 36 1011.1
20260504174554 22 298 19.3 24.1 0.00 0.00 0.00 35 1011.3
20260504174051 22 183 11.3 14.5 0.00 0.00 0.00 34 1011.3
20260504173548 22 223 1.6 3.2 0.00 0.00 0.00 35 1011.4
20260504173045 22 311 17.7 22.5 0.00 0.00 0.00 36 1011.4
20260504172541 21 357 14.5 20.9 0.00 0.00 0.00 36 1011.5
20260504172038 22 207 6.4 8.0 0.00 0.00 0.00 35 1011.6
20260504171535 22 259 8.0 12.9 0.00 0.00 0.00 35 1011.5
20260504171032 21 232 8.0 9.7 0.00 0.00 0.00 35 1011.7
20260504170528 21 333 14.5 17.7 0.00 0.00 0.00 36 1011.7
20260504150912 20 185 3.2 8.0 0.00 0.00 0.00 43 1013.0
20260504150408 18 172 4.8 8.0 0.00 0.00 0.00 43 1013.2
20260504140835 18 185 1.6 3.2 0.00 0.00 0.00 43 1013.5
20260504140330 17 225 3.2 3.2 0.00 0.00 0.00 44 1013.3
20260504130800 16 185 8.0 11.3 0.00 0.00 0.00 51 1014.0
20260504130255 16 229 3.2 8.0 0.00 0.00 0.00 53 1014.0
20260504120219 12 233 4.8 4.8 0.00 0.00 0.00 70 1014.5
20260504110647 9 225 3.2 3.2 0.00 0.00 0.00 76 1014.8
20260504110143 9 242 3.2 3.2 0.00 0.00 0.00 75 1014.9
20260504100609 8 219 3.2 3.2 0.00 0.00 0.00 73 1014.6
20260504100107 8 214 3.2 3.2 0.00 0.00 0.00 74 1014.5